Regional Weather Roundup
Issued by NWS

Home | Current Version | Previous Version | Text Only | Print | Product List | Glossary On
Versions: 1 2 3 4 5 6 7 8 9 10 11 12 13 14 15 16 17 18 19 20 21 22 23 24 25 26 27 28 29 30 31 32 33 34 35 36 37 38 39 40 41 42 43 44 45 46 47 48 49 50
000
ASUS43 KLSX 191310
RWRMO

WEATHER SUMMARY FOR MISSOURI
NATIONAL WEATHER SERVICE SPRINGFIELD MO
700 AM CST SUN FEB 19 2017

NOTE: "FAIR" INDICATES FEW OR NO CLOUDS BELOW 12,000 FEET WITH NO
       SIGNIFICANT WEATHER AND/OR OBSTRUCTIONS TO VISIBILITY.
       CURRENT SKY AND/OR WEATHER CONDITIONS ARE NOT AVAILABLE FOR
       CHILLICOTHE AND FARMINGTON.

MOZ001>031-035>038-043-044-053-054-191400-
...NORTHERN AND WESTERN MISSOURI...

CITY           SKY/WX    TMP DP  RH WIND       PRES   REMARKS
KANSAS CTY INT PTCLDY    45  45 100 S10       29.95R FOG
KANSAS C DTWN  CLEAR     50  48  93 S7        29.96R
LEE`S SUMMIT   CLEAR     48  48 100 S7        29.97R FOG
ST JOSEPH      FOG       35  35 100 CALM      29.95R VSB 1/2
CHILLICOTHE      N/A     37  35  92 CALM      29.99R
KIRKSVILLE     CLEAR     40  38  93 SW5       29.98R

$$
MOZ066>068-077>081-088>096-101>105-191400-
...SOUTHWEST MISSOURI...

CITY           SKY/WX    TMP DP  RH WIND       PRES   REMARKS
SPRINGFIELD    CLEAR     47  45  93 E8        29.98S
JOPLIN         CLEAR     45  45 100 VRB5      29.97R FOG
BRANSON        PTCLDY    45  45 100 CALM      30.01R

$$
MOZ032>034-039>042-045>050-055>058-069>072-191400-
...CENTRAL MISSOURI...

CITY           SKY/WX    TMP DP  RH WIND       PRES   REMARKS
COLUMBIA       CLEAR     47  46  97 SE6       30.00S FOG
JEFFERSON CITY FOG       36  35  96 SE3       30.02R VSB 1/2
ROLLA          FOG       44  44 100 S7        30.02R VSB 1/4
SEDALIA        FOG       44  43  96 S6        30.00R VSB 1/4
WHITEMAN AFB   CLEAR     45  45 100 S6        29.97R FOG
WARRENSBURG    FOG       43  41  93 S5        29.97S VSB<1/4
OSAGE BEACH    FOG       42  42 100 S3        30.02S VSB 1/2

$$
MOZ051-052-059>065-191400-
...EAST CENTRAL MISSOURI...

CITY           SKY/WX    TMP DP  RH WIND       PRES   REMARKS
ST LOUIS INTL  PTCLDY    43  40  89 SW3       30.03R FOG
SPIRIT OF STL  FOG       41  41 100 CALM      30.03R VSB 1/4
ST CHARLES     FOG       38  38 100 N3        30.03R VSB<1/4

$$
MOZ072>076-082>087-097>100-106>115-191400-
...SOUTH CENTRAL AND SOUTHEAST MISSOURI...

CITY           SKY/WX    TMP DP  RH WIND       PRES   REMARKS
CAPE GIRARDEAU FOG       50  49  96 CALM      30.06R VSB 1/4
FARMINGTON     FOG       46  46 100 CALM      30.06R VSB<1/4
POPLAR BLUFF   FOG       47  47 100 CALM      30.06R VSB 1/4
WEST PLAINS    FOG       40  39  97 CALM      30.05R VSB 1/4

$$




USA.gov is the U.S. government's official web portal to all federal, state and local government web resources and services.